Location: Fours
(44.3167°N, 6.7000°E)
Time: 05:27:58
(UTC+00:00)

X-37B - Pass Details

Date: 30 November 2020
Orbit: 383 x 391 km, 45.1° (Epoch: 22 January)

Event Time Altitude Azimuth Distance (km) Brightness Sun altitude
Rises 18:17:59 0° 263° (W) 2,259 5.9 -24.8°
Reaches altitude 10° 18:20:03 10° 265° (W) 1,408 4.5 -25.2°
Enters shadow 18:21:35 26° 267° (W) 805 2.8 -25.5°
